Wind_Speed
60 61 61 61 62 62 63 63 62 61 62 61 61 59 59 58 57 56 55 55 54 54 54 52 51 50 49 48 48 47 46 45 44 44 43 42 42 41 40 39 39 39 39 39 39 40 41 41 42 43 43 44 44 44 44 45 46 46 46 46 45 45 44 44 43 42 40 40 41 44 49 52 54 55 55 56 57 58 59 61 62 63 66 68 71 73
60 61 61 61 60 61 62 62 61 60 61 61 61 60 59 59 58 57 55 54 54 54 54 54 53 52 51 50 49 49 48 47 47 47 47 46 45 44 43 42 42 41 41 41 41 41 42 43 43 43 44 44 44 44 45 45 45 45 46 46 45 45 44 44 43 42 41 41 44 47 51 54 54 54 53 53 54 55 55 56 56 57 59 61 64 68
59 60 60 60 59 59 60 61 61 60 60 60 61 60 60 59 58 57 56 55 54 53 53 53 53 54 53 52 51 50 49 49 49 50 50 49 49 47 46 45 44 43 43 42 42 42 43 43 43 43 44 44 44 44 44 45 45 45 45 45 45 45 45 45 44 43 43 45 48 51 52 51 50 49 48 48 48 49 49 50 50 51 53 54 57 61
58 58 59 58 58 58 59 59 59 59 59 59 60 60 59 59 59 59 58 57 56 54 53 53 53 54 55 54 52 51 50 50 51 51 51 51 51 50 48 46 45 44 43 43 42 42 42 42 42 43 43 43 43 44 44 44 44 44 45 45 45 45 45 44 44 44 46 48 50 50 48 47 45 43 43 42 42 42 43 44 45 47 48 50 51 54
56 56 57 56 57 57 58 58 58 58 58 58 58 58 58 59 60 61 61 60 59 57 56 55 55 55 55 54 53 51 50 50 51 51 52 52 51 50 48 46 45 43 42 42 41 41 41 41 41 41 41 42 42 42 42 42 42 43 43 43 43 43 43 43 44 45 47 48 48 46 44 42 41 39 39 38 37 37 39 40 42 43 45 46 47 49
55 54 54 54 55 56 57 57 57 56 56 55 55 55 57 59 60 61 61 61 61 61 59 58 57 56 56 54 53 51 51 50 50 51 51 50 49 48 46 45 43 42 41 40 40 40 40 40 40 40 40 40 40 41 41 40 40 40 40 41 41 41 41 42 44 46 47 46 45 42 41 39 38 38 37 37 36 36 38 40 41 41 42 43 44 45
54 53 53 53 54 55 56 56 55 53 51 51 52 55 58 60 60 60 59 59 61 62 62 61 59 58 56 55 53 52 51 50 49 49 48 47 46 45 43 42 41 40 40 39 39 39 39 39 39 38 38 38 39 39 39 39 39 39 39 40 40 40 41 42 44 45 45 43 42 40 38 37 37 38 38 37 37 38 39 40 41 41 41 41 42 44
53 54 53 53 53 54 54 52 51 49 49 50 53 58 61 62 61 59 58 59 61 63 63 63 61 59 56 55 54 53 51 50 49 47 46 45 44 42 41 41 40 39 39 39 38 38 38 37 37 36 36 36 36 37 37 37 38 38 39 39 39 39 40 41 42 43 42 41 40 38 37 37 37 38 38 38 39 40 41 42 42 41 40 41 42 43
52 52 52 50 48 48 50 50 50 50 51 54 58 61 63 63 61 60 60 61 61 62 63 63 61 59 56 54 53 52 50 49 47 46 45 44 43 42 41 40 39 39 38 37 37 36 36 35 34 34 33 33 33 34 35 36 36 37 37 38 38 38 38 39 40 40 39 39 38 38 37 37 38 38 38 39 39 41 42 43 42 41 40 41 42 43
49 48 47 46 44 44 47 50 53 56 57 60 62 63 62 61 60 61 62 62 62 61 60 60 60 58 56 53 51 50 49 47 45 44 43 43 42 41 41 40 39 38 37 36 35 34 33 33 32 31 31 30 31 31 32 33 34 35 36 36 36 36 37 37 37 37 37 37 37 37 37 38 38 38 38 38 39 41 42 43 42 41 41 41 42 43
46 44 43 44 45 48 51 54 58 61 63 63 63 62 60 59 59 61 63 64 62 60 58 57 57 56 55 52 50 48 47 46 45 44 43 42 41 41 40 39 38 36 35 34 33 32 31 31 30 29 29 28 28 28 29 30 32 33 34 35 35 35 35 35 35 35 35 35 36 37 37 38 38 38 39 39 40 41 42 42 42 41 41 42 42 43
42 43 45 48 51 55 57 60 62 64 64 63 62 60 59 58 58 60 62 63 61 59 57 55 54 52 51 50 49 47 46 45 45 44 43 41 40 40 40 39 37 35 34 32 31 30 30 29 28 28 27 27 27 27 27 28 30 31 33 34 34 34 34 34 34 34 34 35 35 36 37 38 38 39 39 40 41 42 42 42 42 41 41 42 42 42
45 48 51 53 56 58 60 62 62 62 61 60 59 59 59 58 58 58 58 58 57 56 54 53 51 49 48 47 46 46 45 45 45 44 43 41 40 40 41 41 39 36 34 32 31 30 29 28 27 27 26 26 25 26 26 27 28 30 31 32 33 33 33 33 33 33 33 34 35 36 36 37 38 38 39 40 41 42 43 43 42 42 42 42 41 42
50 52 54 56 57 58 58 59 59 60 59 58 57 57 57 56 55 55 54 54 53 52 50 50 49 47 45 44 44 44 45 45 46 45 44 42 41 42 43 43 40 36 34 32 31 29 28 28 27 26 25 24 24 25 25 26 27 28 29 30 31 31 32 32 32 33 33 34 34 35 36 37 37 37 38 39 40 41 42 42 43 43 42 42 43 44
54 56 57 57 57 57 58 58 58 58 58 57 56 55 54 53 52 51 50 50 49 48 47 47 47 46 44 44 43 44 44 46 47 47 46 43 41 42 43 44 41 37 34 32 31 29 28 27 26 25 24 23 23 23 24 24 25 25 26 27 28 29 30 31 32 32 33 33 34 35 36 36 37 37 38 39 40 40 41 42 42 43 43 43 44 46
56 57 58 58 59 59 59 59 58 58 57 55 54 52 51 50 49 48 47 47 47 47 47 48 48 48 46 44 43 43 44 46 47 48 47 45 41 40 42 43 41 37 34 32 31 30 28 27 26 25 24 23 22 22 23 23 24 24 25 25 26 27 29 31 31 31 32 32 33 34 35 36 36 38 39 40 41 41 41 42 42 42 43 44 46 47
54 56 57 59 61 62 60 59 57 56 55 53 52 50 49 48 47 45 45 45 46 47 49 50 52 52 51 47 44 44 44 46 48 48 48 45 42 40 40 41 40 37 34 33 31 30 29 28 27 25 24 23 22 22 23 23 24 25 25 26 27 28 30 30 30 31 31 32 33 33 34 35 36 38 40 41 42 43 43 43 43 43 44 45 46 48
54 56 58 61 63 63 61 59 56 54 52 51 49 48 47 46 44 44 44 45 47 49 51 52 53 54 53 51 48 45 45 47 48 48 47 45 42 40 39 39 39 37 35 33 32 30 29 28 27 26 24 24 23 24 25 26 26 27 28 28 29 30 31 31 31 31 32 32 33 34 35 35 37 38 40 41 43 44 45 46 45 45 45 45 46 47
55 57 60 63 64 63 60 57 54 51 49 48 48 47 46 45 44 44 45 46 47 49 51 53 53 52 51 51 49 47 46 46 47 47 46 45 43 40 39 38 38 37 35 34 32 31 30 28 27 26 25 26 26 27 27 28 29 30 30 31 31 31 32 32 33 33 34 34 34 35 35 36 38 39 40 42 44 45 46 47 47 47 46 45 45 46
56 59 60 62 62 61 58 54 51 48 47 46 46 46 46 45 45 46 47 47 48 49 50 52 52 50 49 49 48 46 45 45 45 46 46 45 43 41 39 39 38 37 36 34 32 31 30 29 28 27 27 28 28 28 29 29 30 31 31 32 32 33 33 34 34 35 36 36 35 35 37 38 39 41 42 43 45 46 47 47 47 47 46 46 46 46
58 60 60 59 58 57 54 50 48 46 45 45 45 45 46 47 47 48 47 47 48 48 48 49 49 48 47 48 47 46 45 44 45 45 45 45 44 42 39 39 38 38 36 34 33 32 32 32 31 30 29 29 29 29 29 29 30 31 31 32 32 32 33 33 34 35 35 35 35 36 38 40 41 42 43 44 45 46 47 47 47 46 46 46 47 47
59 59 57 55 53 52 50 47 46 44 43 43 44 45 46 46 47 47 47 46 46 47 47 47 47 47 47 47 47 46 44 43 43 44 44 45 44 42 39 39 38 38 37 35 35 34 34 34 33 32 32 31 31 30 30 29 29 29 30 30 30 30 31 31 32 32 33 33 34 36 39 40 42 43 43 44 45 45 46 46 46 47 47 48 48 49
57 56 54 52 49 47 46 45 44 43 42 42 43 43 43 43 44 45 45 45 45 46 47 47 47 47 47 47 46 45 43 42 41 41 42 44 44 42 39 39 39 38 38 37 37 37 36 36 35 34 33 33 32 31 30 30 29 28 28 28 28 28 28 28 29 29 30 31 33 35 38 39 41 42 42 43 43 43 44 46 47 48 49 50 50 50
54 52 50 47 45 43 43 42 42 42 41 41 41 41 41 42 42 43 44 44 45 46 47 47 47 47 46 45 44 43 41 40 39 39 40 42 42 41 39 38 38 39 38 37 37 37 37 36 35 34 34 33 32 31 30 29 28 27 27 26 26 26 26 26 27 27 28 30 32 34 36 38 40 41 41 41 42 43 44 46 47 49 50 51 51 52
49 47 45 43 41 40 40 40 40 40 40 40 41 41 42 42 42 43 43 44 44 45 45 46 46 46 45 44 43 42 40 38 37 37 38 40 40 39 38 37 38 39 38 37 37 37 37 37 36 35 34 32 31 30 28 28 27 26 26 26 26 25 25 25 25 25 26 28 30 32 35 37 38 39 40 41 42 43 45 46 47 48 49 50 51 52
43 42 40 39 39 38 38 39 39 39 39 40 41 41 42 42 42 42 43 42 42 42 42 43 44 44 44 43 42 41 39 37 36 36 36 38 38 38 36 36 37 38 38 37 37 37 38 37 36 35 33 31 29 28 27 26 26 26 26 26 26 25 24 24 24 24 25 26 28 31 33 35 36 38 39 41 42 43 44 44 44 45 47 49 50 51
39 38 37 37 37 37 38 38 39 39 39 40 40 40 40 40 40 40 40 39 39 39 40 41 42 43 43 42 41 40 38 36 35 35 35 36 37 38 36 36 36 37 37 37 37 38 38 38 36 35 33 30 28 27 26 26 26 27 27 26 26 25 24 23 23 23 23 25 27 29 31 33 35 37 38 40 41 42 42 41 41 42 43 45 47 48
36 36 36 36 37 38 38 39 39 39 39 38 37 36 36 36 36 37 37 37 37 37 38 39 41 41 42 41 40 39 37 36 34 34 34 35 37 37 36 35 35 36 37 38 38 37 37 37 37 35 33 31 29 28 27 28 28 28 27 26 25 24 23 22 22 22 23 24 27 29 30 32 34 35 37 38 39 40 39 39 38 38 39 41 43 45
36 36 36 37 37 38 38 39 38 37 36 35 33 32 32 32 33 34 35 35 35 36 37 38 38 39 40 40 39 38 36 34 33 32 33 34 36 36 35 35 35 35 36 37 37 37 37 37 36 36 34 32 31 30 30 30 30 29 28 26 24 23 22 21 21 22 23 25 26 28 30 31 32 33 34 35 36 36 36 36 35 35 35 36 38 39
36 36 37 37 37 37 37 36 35 33 32 31 29 29 28 29 30 31 32 32 33 34 35 36 36 37 38 38 39 38 36 33 31 30 31 33 35 35 34 34 34 34 35 36 38 38 37 36 36 36 35 34 32 31 31 31 30 29 27 25 23 21 20 20 20 21 22 24 26 27 28 29 29 30 31 31 32 33 33 33 33 32 32 32 32 34
37 38 38 38 37 36 34 33 31 30 29 28 27 27 27 28 28 29 30 31 31 33 34 34 35 35 35 36 37 37 36 32 29 28 30 32 34 34 34 34 34 34 34 35 37 39 40 38 37 36 36 35 33 31 30 30 29 28 26 24 22 20 18 18 19 20 21 23 24 25 25 26 26 26 26 27 27 28 29 29 30 30 30 29 29 29
38 38 38 37 35 32 30 29 28 27 27 27 27 27 27 27 28 28 29 29 30 31 32 33 33 34 34 34 35 35 35 32 29 28 29 31 33 34 34 34 34 34 34 34 35 38 41 41 40 38 37 35 33 31 29 29 28 27 25 23 20 18 17 17 17 19 20 21 21 22 22 22 22 22 22 22 23 23 24 25 26 27 27 26 26 26
38 37 36 33 31 29 27 27 27 27 27 27 27 27 27 27 28 28 28 29 29 30 31 32 33 33 33 33 33 33 33 31 29 28 28 30 32 34 34 34 35 35 35 34 35 36 39 41 42 41 39 36 33 30 29 28 27 25 23 21 18 16 15 15 16 17 17 18 18 18 18 18 18 17 17 17 17 18 19 20 21 22 22 22 23 23
37 34 32 29 28 27 26 27 27 27 28 28 28 28 28 28 28 28 28 28 29 29 30 31 31 32 33 34 34 33 32 30 28 28 28 30 32 33 34 34 35 35 36 36 36 37 38 40 41 42 40 35 31 28 27 27 25 23 20 18 17 15 14 14 15 15 15 15 15 15 15 14 14 13 13 13 13 14 14 15 16 17 17 17 18 20
33 31 28 27 27 27 27 28 28 28 28 28 29 29 29 29 29 29 29 29 29 29 29 30 30 31 31 33 33 34 32 30 28 27 28 29 30 32 34 34 34 35 36 37 37 38 39 40 40 40 38 34 30 26 25 24 22 20 17 16 15 15 14 14 14 13 12 12 12 11 11 10 10 9 8 9 10 11 12 13 14 13 13 13 14 16
30 28 27 27 28 29 29 29 29 29 29 29 29 29 30 30 30 30 29 29 29 29 29 29 29 29 29 30 32 32 32 31 29 28 27 28 29 31 33 34 34 34 35 36 37 37 38 39 38 37 35 32 29 25 21 19 17 16 14 13 13 13 13 12 12 11 10 9 8 7 7 6 6 5 5 6 7 9 11 13 13 12 11 10 11 12
28 27 28 28 29 30 30 30 30 31 31 31 30 30 30 30 30 30 30 30 29 29 29 28 28 28 28 28 29 30 30 30 29 28 27 27 28 30 31 32 33 33 34 35 36 36 37 37 37 35 32 29 27 24 20 17 14 12 11 11 11 12 11 10 9 8 7 6 6 6 6 6 5 4 5 5 7 8 10 12 13 12 10 9 9 10
28 28 29 29 30 31 31 31 31 32 32 32 32 31 31 31 31 30 30 30 29 29 29 28 28 27 27 27 27 27 28 28 28 27 27 27 27 28 30 31 31 31 31 32 33 33 34 34 34 33 30 26 23 20 18 15 12 9 8 9 10 10 9 8 6 6 6 6 6 6 7 7 7 6 6 6 7 7 8 9 10 10 10 8 8 10
29 29 30 30 31 31 32 32 32 32 32 32 32 32 32 31 31 31 30 30 29 29 29 28 28 27 26 26 25 25 26 26 26 26 25 25 25 26 27 28 29 29 29 29 30 30 30 31 31 30 28 25 21 18 15 13 10 8 6 6 7 7 7 6 6 5 6 6 6 6 6 5 5 4 3 2 2 2 3 3 3 5 7 8 8 10
29 30 30 30 31 31 32 32 32 33 33 32 32 32 32 31 31 31 30 29 29 28 28 28 27 26 26 25 24 24 24 24 24 24 23 23 23 24 25 26 27 28 28 27 26 26 26 26 26 26 25 24 21 17 13 10 8 6 5 5 6 6 6 6 6 6 6 6 5 3 2 1 2 2 3 3 4 6 7 6 4 1 2 5 8 11
29 30 30 30 30 31 31 32 32 32 32 32 32 32 31 31 31 31 30 29 29 28 28 27 26 26 25 24 23 22 22 22 22 22 22 22 22 23 24 25 26 26 26 25 24 23 23 23 23 22 21 20 18 14 11 9 7 6 5 5 6 6 7 7 7 6 6 7 7 7 5 4 4 3 2 2 2 2 3 5 5 5 5 5 8 11
29 30 30 30 31 31 31 31 31 32 31 31 31 31 31 31 31 31 31 30 29 28 28 27 26 25 24 23 21 21 21 20 20 21 21 21 22 22 23 23 24 24 24 24 23 21 20 20 20 19 18 17 14 11 8 6 5 4 5 6 7 7 7 7 7 7 9 11 10 8 5 4 4 3 2 2 3 3 2 4 6 8 8 8 9 11
29 29 30 30 31 31 31 31 31 31 31 30 30 30 30 30 31 31 31 30 30 29 28 27 26 25 24 23 21 20 19 19 20 20 21 21 21 22 22 22 23 23 22 22 21 19 17 17 17 16 16 14 12 9 6 4 3 4 6 8 9 9 8 7 8 10 13 13 10 7 5 5 5 3 1 2 3 4 3 5 7 8 9 9 10 11
29 29 30 30 30 30 31 31 30 30 30 30 30 30 30 30 31 31 31 31 30 29 28 27 26 25 25 24 22 21 20 19 19 20 20 21 21 21 21 22 22 21 21 20 19 18 15 14 14 13 13 11 9 6 4 3 4 5 8 9 10 10 10 10 11 13 15 14 10 7 6 6 5 3 1 2 3 4 3 4 6 6 6 6 8 10
29 29 30 30 30 30 30 30 29 29 29 29 29 30 30 30 31 31 31 31 30 29 28 27 26 26 25 24 23 22 21 20 20 20 20 20 21 21 21 21 21 21 20 19 17 16 14 13 11 10 9 8 7 5 3 4 6 8 9 11 11 11 11 12 14 16 17 15 13 11 9 8 7 5 2 1 3 4 5 5 5 5 4 4 6 8
29 29 29 30 30 30 29 29 29 29 29 29 29 30 30 31 31 31 31 31 31 30 28 27 26 25 25 24 23 23 22 22 21 21 21 21 21 21 21 21 20 20 18 17 15 13 12 11 9 8 7 6 5 4 5 7 9 10 11 12 12 12 12 14 15 17 17 17 16 15 14 12 11 10 8 4 3 4 4 5 6 5 5 6 7 8
28 29 29 29 29 29 29 29 29 29 29 29 29 29 30 30 31 31 31 31 31 30 28 27 25 24 24 23 23 23 23 23 23 23 22 22 21 21 20 20 20 18 17 15 13 11 9 8 7 6 6 6 6 6 8 10 11 13 13 13 13 13 14 15 17 18 18 18 18 17 16 15 14 13 11 8 6 5 6 7 8 8 8 8 9 9
28 29 29 29 29 29 29 29 29 29 29 29 29 29 29 30 30 31 31 31 31 30 28 26 25 23 23 22 23 23 24 24 24 24 23 23 22 21 21 20 19 17 15 13 10 9 7 6 6 6 7 7 8 10 11 13 14 15 14 14 14 15 16 17 18 18 19 18 17 16 15 15 14 14 12 10 8 8 9 10 10 10 10 10 10 11
27 28 28 29 29 29 29 29 30 30 30 30 29 28 28 28 29 29 30 30 30 29 28 26 24 23 22 22 22 23 23 24 24 24 24 24 23 22 21 20 18 16 14 11 9 7 7 7 7 8 9 10 11 13 14 15 16 16 15 15 16 17 18 18 19 19 19 17 16 14 14 13 13 13 11 10 9 10 11 12 12 12 12 12 13 14
27 27 28 29 29 30 30 30 30 30 30 30 29 28 27 27 27 27 28 29 29 29 27 26 24 23 23 23 23 23 23 24 24 24 24 24 24 23 22 20 18 15 13 11 9 9 9 9 10 11 12 13 14 16 17 17 17 16 16 17 18 19 20 20 19 18 17 15 14 13 12 13 13 12 11 9 9 10 12 13 13 13 13 14 15 16
27 27 28 29 30 30 31 31 31 31 30 29 28 28 27 26 26 25 26 27 28 27 26 25 24 23 23 23 23 23 23 24 24 24 24 24 24 23 22 20 18 15 13 11 11 11 11 12 13 14 15 16 17 18 19 18 18 18 19 20 20 21 21 20 19 17 15 13 12 11 11 12 12 12 11 10 10 11 12 13 14 14 15 15 16 17
Wind_Direction
306 306 306 306 306 306 306 307 308 309 309 309 308 308 307 307 306 305 305 306 305 305 305 304 304 303 303 303 303 302 302 302 302 301 300 300 300 298 297 295 293 291 289 288 287 286 285 283 282 280 279 278 277 276 276 275 275 275 274 273 272 271 270 268 266 264 263 264 265 265 263 262 261 261 260 259 258 257 256 255 254 253 252 251 250 249
306 306 306 307 307 307 307 308 309 310 310 309 308 308 307 306 306 306 306 307 307 307 307 307 307 306 306 306 305 305 305 304 303 303 302 302 301 300 299 297 295 293 291 290 288 287 285 284 282 281 280 280 279 278 277 276 275 274 273 273 271 270 268 266 264 262 261 262 263 262 262 262 263 264 263 262 261 260 258 257 256 254 253 251 250 249
307 307 307 308 308 309 309 310 310 310 309 308 307 307 307 307 307 308 309 309 309 309 309 309 308 308 307 307 306 306 305 303 302 302 302 302 301 300 299 297 296 294 292 290 289 287 286 284 283 282 282 281 280 279 278 277 275 274 273 271 270 269 267 265 263 261 260 260 261 262 263 265 266 267 266 265 263 261 259 258 256 255 253 251 250 249
307 308 308 309 310 310 310 310 310 309 308 307 307 308 308 309 310 311 311 311 310 310 309 309 308 307 307 306 306 305 303 302 301 300 300 300 300 300 299 297 296 294 292 291 289 288 286 285 284 284 283 282 281 280 278 277 275 274 273 271 270 268 266 265 263 262 260 260 261 263 265 267 268 268 266 264 263 261 259 257 256 254 253 251 250 249
308 309 310 310 310 310 309 309 308 308 308 309 309 310 311 311 311 312 312 312 311 310 309 309 308 307 306 306 305 304 303 302 301 300 300 299 299 299 298 297 296 294 293 291 290 289 287 287 286 286 285 284 282 280 279 277 275 274 272 271 269 268 266 265 264 263 261 261 262 264 266 266 267 266 264 262 260 259 259 257 256 254 252 251 250 249
309 310 310 310 310 309 309 309 309 310 311 312 311 310 309 309 309 311 312 311 309 308 308 308 308 308 307 306 306 306 305 304 302 301 300 299 299 298 297 297 295 295 294 293 292 291 290 289 289 288 287 285 283 281 278 276 274 272 271 269 268 267 266 265 264 263 262 263 263 264 264 265 265 264 262 259 256 255 255 255 254 253 252 251 250 249
310 310 310 310 310 310 310 311 312 313 313 311 309 306 305 305 307 308 309 307 305 305 307 308 308 308 308 308 307 307 306 305 303 302 301 300 299 299 298 297 297 296 296 295 294 293 292 291 291 289 287 284 282 279 277 275 273 271 269 267 266 265 264 264 264 263 263 263 262 261 261 262 263 262 260 257 254 252 250 250 250 251 251 250 249 248
310 310 311 312 313 313 313 313 312 311 309 305 303 302 302 303 305 306 304 302 301 303 305 307 307 308 308 307 307 306 305 304 303 302 302 301 300 300 300 299 299 298 297 296 295 294 293 292 290 288 284 281 279 276 275 274 272 271 269 267 266 265 264 264 264 264 264 262 260 258 258 260 261 260 259 257 254 252 249 247 246 246 247 248 248 247
311 313 314 316 315 314 311 309 306 304 302 300 299 300 301 303 304 303 302 301 301 303 304 306 307 307 307 306 306 305 304 304 303 303 303 303 302 302 302 301 300 299 298 296 295 293 292 290 288 285 282 279 276 274 273 273 272 271 270 268 267 266 265 265 265 264 263 261 258 256 257 258 259 260 259 258 256 254 251 247 245 244 244 245 246 245
315 317 316 314 310 306 303 300 298 297 298 298 299 299 301 302 302 302 302 303 304 305 306 306 306 306 306 306 305 305 304 304 303 303 303 303 303 303 303 302 301 300 298 296 295 293 291 288 286 283 281 278 276 274 273 272 271 269 268 267 265 265 264 265 265 264 262 260 257 256 257 258 259 259 259 259 257 255 252 248 245 244 244 245 245 243
317 314 309 303 298 295 294 294 294 296 298 299 300 301 301 302 302 301 302 304 306 307 307 307 306 306 305 305 305 305 305 305 305 304 304 304 304 304 304 303 302 301 299 297 295 293 291 289 287 285 283 281 278 276 274 272 270 268 266 264 263 263 263 264 264 263 261 259 258 257 258 258 258 258 257 257 256 255 252 248 245 244 245 245 244 242
310 302 296 293 292 292 293 293 295 297 299 301 302 303 304 304 303 302 302 304 306 307 307 306 306 305 305 305 305 306 306 306 306 306 305 305 306 306 307 306 305 303 301 299 297 294 292 291 289 287 285 283 281 279 276 273 270 267 265 263 262 262 263 264 264 264 262 260 259 259 258 258 258 258 257 256 255 253 251 247 245 244 245 244 242 240
297 293 292 293 293 294 295 296 297 299 302 304 305 305 305 305 305 304 304 304 305 306 306 306 305 305 305 305 306 307 308 308 308 308 308 309 309 310 310 309 307 305 303 301 298 296 294 292 290 288 286 284 282 280 277 274 271 268 266 264 263 262 263 264 265 264 263 261 260 259 258 258 258 257 256 255 254 252 250 247 245 245 244 242 239 237
294 295 297 298 298 298 299 300 302 304 306 307 307 306 306 306 306 306 305 305 306 306 307 306 306 305 305 306 307 309 310 311 311 311 311 311 311 311 310 309 308 306 305 302 299 297 295 293 290 288 286 284 283 281 278 276 273 270 267 265 263 263 264 265 264 263 262 259 258 257 256 256 255 255 254 254 253 251 248 246 245 245 244 242 238 235
297 300 302 303 304 305 305 307 307 308 308 308 307 306 306 306 306 307 307 307 307 308 309 309 308 306 306 307 309 312 313 314 313 311 311 311 311 310 309 308 307 306 305 302 300 298 296 294 291 289 286 284 282 280 278 276 274 272 269 266 264 264 265 265 263 260 259 256 255 254 254 254 253 253 253 252 251 249 247 245 245 244 244 242 238 234
298 302 304 306 308 309 309 310 309 309 308 307 307 307 307 307 307 308 308 309 310 312 313 313 312 310 309 309 311 313 314 312 309 307 307 309 310 309 308 307 306 305 304 302 301 299 297 295 293 290 287 284 281 279 278 278 277 274 271 267 266 266 266 264 262 260 257 255 255 255 255 255 255 254 253 252 250 248 246 245 244 244 243 241 237 234
300 304 306 308 310 310 310 310 309 308 308 307 307 307 308 308 309 309 310 311 313 314 315 314 312 311 310 311 312 313 311 307 304 304 305 307 308 308 307 306 305 305 304 303 301 300 299 297 295 292 289 287 285 284 284 283 282 280 276 271 268 266 264 262 260 259 258 258 258 259 259 259 257 255 253 252 251 249 247 245 244 243 242 240 238 235
305 306 307 308 309 309 309 309 309 308 308 307 308 308 309 309 309 310 311 312 313 314 312 311 309 308 308 309 310 310 307 303 302 303 305 306 307 307 306 305 305 304 303 302 301 300 299 298 296 295 294 293 293 293 293 291 289 285 281 276 271 267 264 261 260 260 260 261 261 262 262 261 259 256 253 252 251 249 247 246 245 244 243 241 238 236
305 306 306 306 307 307 308 308 308 308 308 309 310 310 310 310 310 310 311 311 311 310 307 305 304 305 305 306 307 307 306 305 304 305 305 305 306 306 306 305 304 303 302 301 301 300 300 299 300 300 300 299 299 298 296 294 291 287 283 279 275 271 267 265 263 262 262 262 262 263 263 262 259 256 253 251 250 248 247 246 245 244 243 241 239 237
302 303 303 304 305 306 307 308 308 309 310 311 311 311 311 311 311 310 310 309 307 305 303 301 301 302 304 304 305 306 307 307 306 305 305 305 305 306 306 305 304 303 302 301 301 303 303 303 303 303 301 300 298 297 295 292 289 287 284 281 278 275 272 269 267 266 265 264 264 263 262 261 258 255 253 250 249 247 246 245 245 244 243 242 239 237
300 302 303 304 305 306 306 308 310 311 312 312 312 311 310 310 309 308 307 305 304 302 301 300 301 302 303 303 304 306 307 307 306 305 305 304 304 305 306 305 304 303 303 303 305 307 307 306 304 302 300 299 297 296 294 292 289 287 285 283 281 278 276 274 272 270 268 266 263 261 259 257 255 253 251 250 248 247 246 245 245 245 244 242 239 236
301 303 304 305 305 306 308 310 312 314 314 313 311 309 308 307 305 304 304 304 303 302 302 302 302 303 303 303 304 306 307 307 306 305 304 303 303 304 306 306 305 305 305 307 308 308 307 305 303 301 300 300 299 298 297 295 293 291 289 287 285 283 281 278 276 273 271 268 264 260 257 255 253 251 250 248 246 245 244 244 244 244 243 241 238 235
303 303 304 305 306 308 310 312 314 314 314 313 310 308 307 306 305 304 304 304 304 303 303 304 304 304 304 304 305 305 306 306 305 304 303 302 303 304 307 307 308 308 308 308 308 307 305 303 302 301 301 302 302 302 302 301 299 297 295 292 289 287 284 281 278 275 272 269 265 261 257 254 252 250 248 246 245 244 242 242 242 242 241 239 236 233
303 304 305 306 308 310 312 313 313 313 313 312 310 309 309 308 306 306 305 305 304 304 305 305 305 304 304 304 305 305 306 306 305 304 303 302 303 306 308 310 310 309 308 307 306 305 303 302 301 302 303 304 305 306 306 305 304 301 298 295 291 288 285 282 279 276 272 269 265 261 257 254 251 248 245 242 241 240 240 240 240 240 239 236 233 231
303 304 306 308 310 311 312 312 312 312 312 311 310 310 309 308 307 306 305 305 305 305 305 305 304 304 304 305 305 305 307 307 307 306 306 306 306 308 310 311 310 308 306 305 305 303 302 302 302 303 305 306 307 308 308 307 305 303 300 297 294 291 289 286 283 280 275 270 265 260 256 253 251 247 244 240 238 238 238 239 239 239 237 235 232 229
304 306 308 310 311 312 312 312 312 312 312 311 310 309 309 308 306 305 305 305 305 305 305 305 304 304 305 306 307 308 309 310 310 310 310 310 310 310 311 311 310 308 306 305 305 304 304 304 304 305 306 308 309 309 308 308 306 304 302 301 299 298 297 294 290 285 279 272 265 260 256 253 250 247 244 240 239 238 238 239 239 238 236 233 231 229
308 309 311 312 313 314 314 314 313 313 312 311 310 309 307 306 305 304 305 306 306 307 306 306 306 306 307 308 309 311 313 313 314 315 315 314 312 311 311 312 311 309 307 306 306 306 306 306 306 307 308 309 310 311 311 311 310 308 307 306 305 305 303 299 295 289 281 273 266 260 255 252 249 246 244 241 239 239 239 239 239 237 235 233 230 228
312 313 314 315 315 315 315 314 313 313 311 310 309 308 306 305 305 306 307 308 309 308 307 307 307 308 309 310 312 313 315 316 318 320 319 316 312 311 312 312 312 310 309 307 306 305 306 306 307 308 310 312 314 315 316 316 314 313 311 311 310 308 306 301 295 288 279 271 265 259 255 252 249 247 244 242 240 240 239 239 238 237 235 232 230 228
316 317 317 317 317 316 315 314 313 312 311 310 309 309 308 308 308 309 310 311 311 310 309 309 309 310 311 312 314 315 316 319 322 323 321 315 311 310 312 312 311 311 310 308 306 304 305 306 308 309 311 313 316 318 319 318 317 315 314 314 312 310 306 299 292 283 275 268 263 259 256 254 251 248 246 244 242 241 240 240 239 237 235 232 229 227
319 319 319 318 318 316 315 314 314 314 313 313 313 313 314 314 313 313 313 313 313 312 311 311 311 312 313 314 315 316 318 321 325 324 320 315 311 311 312 312 312 312 312 311 308 306 305 305 307 309 311 314 317 319 320 319 318 317 317 316 313 309 304 296 287 278 271 266 263 261 258 256 254 251 248 246 244 242 241 240 239 238 235 232 229 226
320 320 319 319 318 317 317 317 318 318 319 320 320 321 320 320 319 318 317 316 315 314 314 313 314 314 314 315 315 315 318 323 327 325 320 315 312 311 313 313 312 312 312 312 311 308 306 305 306 308 310 313 318 321 322 321 320 319 319 317 314 309 302 294 285 277 271 268 265 263 261 259 256 253 250 247 244 242 241 239 238 237 235 232 229 224
320 320 319 319 320 321 322 323 325 326 327 328 328 328 327 325 324 322 321 320 319 318 317 316 316 316 316 315 314 315 318 324 327 326 321 316 313 312 313 312 312 311 311 311 310 308 306 306 307 308 310 315 320 324 324 323 322 322 321 319 315 310 303 294 285 279 274 271 269 267 264 261 258 254 250 245 242 239 237 236 235 234 234 232 228 223
319 319 320 322 324 326 329 331 333 334 334 334 334 333 332 330 328 326 325 323 322 321 320 319 319 318 318 317 316 316 319 323 326 325 321 316 313 312 312 311 310 310 309 309 308 307 306 306 307 309 312 318 324 328 327 326 324 323 322 319 315 309 302 293 286 280 277 275 272 269 266 261 257 252 247 241 236 232 230 229 229 230 231 230 227 223
319 321 324 327 330 333 336 338 339 339 339 339 338 336 335 333 331 329 328 326 325 324 323 321 320 319 319 318 317 318 320 323 324 323 319 315 312 310 310 309 309 308 308 308 308 307 307 307 308 310 315 321 327 329 328 326 325 323 322 319 314 307 300 292 286 283 281 278 275 270 265 260 256 250 243 234 227 222 218 217 219 221 224 225 225 222
322 326 330 334 337 339 341 342 342 342 342 341 340 338 337 335 333 331 330 328 327 325 324 323 321 320 319 318 317 318 320 322 322 320 316 313 310 309 307 307 307 307 307 307 308 308 307 307 309 311 316 323 328 330 329 327 325 323 321 317 311 305 299 296 294 291 289 284 279 274 269 264 258 251 241 230 220 211 206 203 203 204 208 212 216 217
327 332 337 339 341 342 342 343 343 343 343 342 341 339 337 336 334 332 330 329 327 326 324 323 321 320 318 317 316 317 318 319 319 317 314 311 308 306 305 304 305 306 306 306 307 307 307 308 310 313 318 323 326 329 329 327 325 322 318 311 304 300 300 303 305 306 303 299 294 291 289 284 276 263 243 226 214 205 197 191 188 187 189 195 203 208
333 337 341 342 343 342 342 343 343 343 342 342 341 339 337 335 334 332 330 329 328 326 325 323 322 320 319 318 317 316 317 317 317 315 312 309 306 304 302 302 303 304 304 305 306 307 308 309 311 314 319 322 325 328 331 329 325 321 315 305 299 298 304 312 318 321 324 325 324 320 314 304 292 273 251 235 225 216 208 200 194 190 189 191 196 200
338 341 343 343 343 343 342 343 343 342 342 341 340 339 337 335 333 332 330 329 328 327 326 325 323 322 321 320 318 317 317 316 315 313 311 308 304 302 301 302 303 304 304 305 306 308 309 310 312 316 320 323 326 330 333 331 325 319 313 305 304 308 318 328 337 344 345 341 334 322 308 294 283 274 262 253 248 243 236 227 218 213 211 210 205 198
340 342 343 343 343 342 342 342 342 342 341 340 339 338 336 335 333 332 331 330 329 329 327 326 325 325 324 323 321 320 318 315 314 312 310 308 305 304 303 304 305 306 307 308 309 310 311 312 314 317 320 323 328 334 337 333 325 316 311 313 319 329 346 359 6 2 353 341 328 314 302 296 294 293 292 289 298 318 323 306 266 243 236 232 218 201
341 341 342 342 342 342 342 342 341 341 340 339 339 338 336 335 334 333 332 332 331 330 329 328 328 328 328 327 325 322 319 317 315 313 312 311 311 310 310 310 310 311 311 312 312 313 314 315 316 317 319 322 327 334 340 335 325 317 320 337 348 1 19 26 21 10 2 359 359 4 16 51 71 65 50 43 33 29 33 38 42 18 237 227 217 204
340 341 341 342 342 342 342 342 341 340 340 339 339 339 337 336 335 334 334 334 334 333 332 331 331 331 331 331 329 325 322 320 318 318 318 319 319 318 317 315 315 314 314 314 316 317 317 316 316 317 318 322 327 333 338 333 325 325 344 5 18 28 38 37 32 28 33 46 60 72 87 103 109 99 69 35 13 25 58 86 112 131 138 171 192 197
340 340 341 342 342 342 342 342 341 341 341 341 341 340 339 338 337 336 336 336 336 336 335 334 333 334 335 335 333 330 327 325 325 326 326 326 325 323 321 319 317 316 316 316 318 319 319 317 316 317 319 324 329 334 338 334 331 344 13 33 43 49 52 49 47 50 58 65 73 85 95 93 87 77 45 340 302 274 223 181 166 158 149 155 170 183
340 341 342 342 342 343 343 342 342 343 343 344 344 344 343 341 340 339 339 339 339 338 338 336 336 336 337 338 338 337 335 334 334 334 333 332 329 326 323 321 319 318 318 318 319 320 320 318 317 317 321 327 333 338 342 344 358 28 49 58 64 66 67 65 63 62 63 67 73 77 71 59 54 47 3 300 279 263 236 201 182 171 163 161 168 175
341 342 342 343 343 343 343 344 344 345 346 347 348 347 347 345 343 343 342 342 341 341 340 338 338 338 339 340 341 342 343 343 342 341 339 336 333 330 327 325 323 321 320 320 320 321 321 320 319 321 326 332 339 347 357 16 45 62 71 74 75 73 70 67 65 65 66 70 72 68 58 50 47 41 309 260 252 245 227 195 179 176 179 176 174 175
342 342 343 343 343 344 345 346 347 349 350 351 351 351 350 348 347 346 345 344 344 343 342 340 339 339 340 341 343 346 349 351 350 348 345 342 339 335 332 329 326 325 324 323 323 323 323 324 326 330 336 343 351 7 36 58 71 78 81 81 78 74 69 66 64 63 64 64 62 59 55 51 47 46 55 166 209 212 204 194 191 191 186 169 160 164
343 343 343 344 345 346 347 348 350 351 352 353 353 353 351 350 350 349 348 347 346 345 344 342 341 340 340 342 345 349 353 355 355 354 351 348 345 341 337 333 331 329 328 328 327 327 328 330 335 343 354 6 20 43 71 79 83 84 84 81 78 73 69 65 62 59 58 54 49 46 44 41 37 35 40 66 127 168 173 165 161 157 150 140 139 148
344 344 344 345 346 347 349 350 351 352 353 353 354 353 352 351 351 350 350 349 348 347 345 344 342 341 341 343 347 351 355 357 358 357 355 353 351 347 344 340 337 336 335 334 334 334 337 343 353 7 25 39 54 72 86 89 89 87 84 81 78 74 70 65 59 55 51 45 39 34 32 28 25 25 34 51 76 105 120 124 127 131 134 134 135 139
345 345 345 346 347 349 351 351 351 351 352 352 352 352 352 351 351 350 351 351 350 349 347 346 344 343 344 347 350 354 356 358 359 358 358 356 355 353 351 348 346 344 344 345 346 350 357 9 24 42 58 69 80 88 93 92 89 86 84 83 81 78 73 65 58 52 47 40 34 28 23 19 17 20 29 45 68 91 104 111 118 126 132 134 133 133
346 346 346 347 348 350 351 351 350 350 350 350 350 351 351 351 350 350 351 351 352 351 349 347 346 347 349 352 355 357 359 360 0 0 359 359 359 359 358 357 356 356 358 1 7 16 30 44 57 67 77 85 92 95 95 92 89 87 86 85 83 79 72 64 56 50 43 37 30 25 20 18 19 22 27 41 67 92 106 112 119 126 132 135 136 136
347 347 348 348 349 349 349 349 349 349 349 349 349 349 350 350 349 350 350 352 353 353 351 350 349 350 353 356 359 1 2 2 3 3 2 2 2 3 4 6 8 9 12 19 31 45 59 69 76 82 87 92 96 97 96 94 92 91 89 87 82 76 68 60 53 46 40 34 29 24 21 21 22 24 30 44 70 92 105 112 118 124 130 135 138 140
349 349 349 348 348 348 348 348 348 348 348 348 349 349 349 349 349 349 351 353 354 355 354 353 353 354 357 360 2 3 4 4 5 6 6 6 7 8 11 14 18 22 27 37 49 61 72 81 88 91 94 96 98 99 98 97 96 93 90 84 78 71 63 56 50 45 41 37 31 27 25 24 25 28 35 49 69 88 98 106 112 118 124 130 134 138
Height
2876 2873 2871 2869 2867 2864 2861 2860 2859 2856 2852 2850 2849 2848 2846 2844 2843 2841 2839 2837 2834 2832 2829 2828 2826 2825 2824 2823 2821 2820 2819 2818 2817 2816 2814 2813 2813 2811 2810 2809 2808 2807 2806 2804 2803 2802 2801 2800 2799 2798 2797 2796 2795 2795 2794 2793 2793 2792 2792 2792 2791 2791 2791 2791 2790 2790 2790 2790 2790 2789 2788 2787 2787 2788 2788 2789 2790 2791 2792 2794 2796 2798 2799 2802 2804 2806
2871 2869 2866 2865 2863 2860 2856 2854 2853 2852 2848 2845 2843 2843 2841 2839 2837 2835 2834 2832 2830 2828 2825 2823 2821 2820 2818 2817 2816 2815 2814 2813 2812 2811 2809 2808 2808 2806 2805 2804 2803 2802 2801 2800 2798 2797 2796 2795 2794 2793 2792 2792 2791 2790 2789 2789 2788 2788 2787 2787 2786 2786 2786 2786 2785 2785 2785 2785 2784 2783 2783 2783 2783 2784 2784 2785 2786 2787 2788 2789 2791 2793 2794 2796 2799 2801
2867 2864 2862 2860 2858 2856 2852 2850 2848 2847 2845 2842 2839 2838 2836 2834 2832 2830 2828 2827 2825 2823 2821 2819 2817 2815 2814 2813 2812 2811 2810 2809 2808 2806 2805 2803 2803 2802 2800 2799 2798 2797 2796 2795 2793 2792 2791 2790 2789 2788 2788 2787 2786 2785 2784 2784 2783 2783 2782 2781 2781 2781 2781 2780 2780 2780 2780 2780 2779 2779 2779 2780 2781 2781 2781 2781 2782 2783 2784 2785 2786 2788 2789 2791 2794 2796
2863 2860 2857 2855 2853 2851 2849 2847 2845 2843 2841 2838 2836 2833 2831 2829 2827 2825 2823 2822 2820 2818 2817 2816 2814 2812 2810 2808 2808 2806 2806 2804 2803 2802 2800 2799 2798 2797 2795 2794 2793 2792 2791 2790 2788 2788 2786 2785 2784 2783 2783 2782 2781 2780 2779 2778 2778 2777 2777 2776 2776 2776 2776 2776 2776 2776 2776 2775 2775 2775 2776 2777 2777 2777 2777 2777 2778 2778 2779 2780 2782 2783 2785 2786 2788 2791
2859 2857 2853 2851 2849 2847 2845 2844 2842 2839 2837 2834 2831 2829 2827 2825 2823 2821 2818 2817 2815 2814 2813 2812 2811 2809 2807 2805 2803 2802 2801 2800 2798 2797 2796 2794 2793 2792 2790 2789 2788 2787 2786 2785 2784 2783 2782 2781 2780 2778 2778 2777 2776 2775 2774 2774 2773 2773 2772 2772 2771 2771 2771 2771 2771 2771 2771 2770 2770 2771 2772 2772 2773 2773 2773 2773 2773 2774 2776 2777 2778 2779 2781 2783 2784 2786
2855 2853 2851 2849 2846 2844 2842 2839 2838 2835 2832 2829 2827 2825 2823 2822 2820 2818 2815 2813 2811 2809 2808 2807 2806 2804 2802 2800 2799 2798 2796 2795 2794 2792 2791 2790 2788 2787 2786 2785 2783 2783 2781 2780 2779 2778 2777 2776 2775 2774 2773 2772 2771 2770 2769 2769 2768 2768 2768 2767 2767 2767 2767 2767 2766 2766 2766 2766 2767 2768 2768 2768 2768 2769 2769 2769 2770 2771 2773 2774 2775 2776 2777 2779 2781 2782
2851 2850 2849 2846 2843 2840 2838 2835 2833 2831 2829 2826 2824 2822 2820 2818 2817 2815 2813 2812 2809 2806 2803 2802 2801 2799 2798 2796 2794 2793 2792 2790 2789 2787 2786 2785 2783 2783 2781 2780 2779 2778 2777 2776 2775 2774 2773 2772 2771 2770 2768 2768 2767 2766 2765 2764 2764 2763 2763 2762 2762 2762 2762 2762 2762 2762 2762 2762 2763 2763 2764 2764 2764 2764 2765 2765 2766 2768 2769 2770 2772 2773 2774 2776 2777 2779
2847 2845 2844 2843 2839 2835 2833 2832 2830 2829 2827 2825 2822 2818 2815 2814 2813 2812 2810 2808 2805 2803 2800 2798 2796 2795 2793 2792 2790 2789 2787 2785 2784 2782 2781 2780 2779 2778 2777 2776 2775 2774 2773 2772 2771 2770 2769 2768 2767 2766 2765 2764 2763 2762 2761 2760 2759 2759 2758 2758 2758 2758 2758 2757 2757 2758 2758 2759 2759 2759 2760 2760 2760 2760 2761 2762 2762 2763 2764 2765 2767 2768 2770 2771 2773 2775
2844 2841 2838 2838 2836 2833 2830 2828 2827 2827 2825 2823 2819 2816 2813 2810 2808 2807 2805 2803 2802 2800 2798 2794 2792 2790 2788 2788 2786 2784 2783 2781 2779 2778 2777 2775 2774 2773 2773 2772 2771 2770 2769 2768 2767 2766 2765 2764 2763 2762 2761 2760 2759 2758 2757 2756 2756 2755 2754 2754 2754 2754 2753 2753 2754 2754 2754 2755 2755 2756 2756 2756 2757 2757 2758 2758 2759 2759 2760 2760 2762 2763 2765 2767 2769 2770
2841 2839 2836 2835 2834 2833 2830 2826 2823 2823 2822 2819 2817 2814 2811 2808 2805 2802 2799 2798 2797 2796 2794 2791 2788 2785 2783 2783 2782 2780 2778 2777 2775 2774 2773 2772 2771 2770 2769 2768 2767 2766 2765 2764 2763 2762 2761 2760 2759 2758 2758 2757 2756 2755 2754 2753 2752 2751 2751 2751 2750 2750 2750 2750 2750 2751 2751 2751 2752 2752 2753 2753 2753 2754 2754 2755 2756 2756 2756 2757 2758 2759 2762 2763 2764 2765
2838 2838 2837 2834 2831 2829 2828 2824 2821 2819 2818 2816 2813 2810 2808 2806 2803 2799 2795 2792 2790 2790 2789 2787 2785 2782 2779 2777 2776 2775 2774 2772 2771 2770 2770 2769 2768 2766 2765 2763 2763 2762 2761 2760 2759 2758 2758 2757 2756 2755 2754 2753 2752 2751 2750 2749 2748 2748 2747 2747 2747 2747 2747 2747 2747 2748 2748 2748 2749 2749 2750 2750 2750 2750 2751 2752 2753 2753 2753 2753 2754 2756 2757 2758 2759 2760
2838 2837 2834 2831 2828 2826 2823 2821 2818 2816 2814 2811 2808 2804 2802 2802 2800 2797 2793 2788 2786 2785 2783 2782 2781 2779 2777 2774 2772 2771 2770 2768 2767 2766 2765 2764 2763 2762 2760 2759 2758 2758 2757 2756 2756 2755 2754 2753 2752 2751 2750 2749 2748 2748 2747 2746 2745 2744 2744 2743 2743 2744 2744 2744 2744 2744 2745 2745 2745 2746 2746 2746 2746 2746 2747 2748 2748 2748 2749 2749 2750 2751 2753 2753 2755 2756
2837 2833 2830 2828 2825 2823 2821 2818 2814 2812 2810 2808 2805 2801 2798 2797 2796 2793 2790 2786 2783 2782 2780 2778 2775 2774 2773 2772 2770 2768 2766 2764 2763 2762 2761 2760 2759 2758 2756 2755 2754 2753 2753 2752 2752 2751 2751 2750 2748 2748 2747 2746 2745 2744 2744 2743 2742 2741 2741 2741 2741 2741 2741 2741 2742 2742 2742 2742 2742 2742 2742 2742 2742 2743 2743 2743 2744 2744 2745 2745 2746 2747 2748 2749 2751 2752
2832 2829 2827 2825 2822 2819 2817 2814 2811 2808 2805 2803 2802 2799 2796 2793 2792 2789 2787 2783 2781 2779 2777 2774 2771 2769 2769 2768 2768 2766 2763 2761 2759 2758 2757 2756 2755 2754 2753 2751 2750 2750 2750 2748 2748 2747 2747 2746 2745 2744 2744 2743 2742 2742 2741 2740 2739 2739 2738 2738 2738 2738 2738 2738 2738 2738 2738 2738 2738 2738 2738 2738 2738 2738 2738 2739 2740 2740 2740 2741 2742 2743 2744 2745 2747 2748
2828 2826 2823 2820 2817 2815 2813 2810 2807 2804 2802 2800 2798 2795 2793 2790 2788 2786 2783 2780 2777 2775 2773 2770 2768 2766 2765 2765 2765 2763 2760 2758 2756 2754 2753 2753 2752 2752 2750 2748 2747 2746 2746 2745 2744 2743 2743 2743 2742 2741 2740 2740 2739 2739 2738 2737 2737 2736 2736 2735 2735 2735 2736 2735 2734 2734 2733 2733 2733 2733 2733 2733 2734 2734 2734 2735 2735 2735 2736 2737 2738 2739 2740 2741 2742 2743
2826 2823 2820 2816 2813 2810 2808 2807 2804 2801 2798 2796 2794 2792 2790 2787 2785 2783 2780 2777 2774 2772 2770 2767 2764 2761 2760 2761 2762 2761 2758 2756 2754 2752 2750 2749 2749 2749 2748 2745 2743 2743 2743 2742 2741 2740 2739 2739 2738 2738 2737 2737 2736 2736 2735 2734 2734 2733 2733 2733 2733 2733 2733 2732 2731 2730 2730 2729 2729 2729 2729 2730 2730 2730 2730 2731 2731 2731 2732 2733 2734 2735 2736 2737 2738 2739
2823 2820 2817 2813 2809 2806 2804 2803 2801 2798 2795 2793 2791 2789 2787 2784 2782 2780 2777 2774 2772 2769 2767 2765 2762 2758 2755 2755 2756 2758 2757 2755 2752 2749 2747 2745 2745 2745 2745 2743 2740 2739 2738 2738 2737 2737 2736 2735 2734 2734 2733 2733 2733 2732 2732 2731 2731 2730 2730 2729 2730 2730 2728 2728 2727 2726 2726 2726 2726 2726 2726 2726 2726 2726 2727 2727 2727 2728 2728 2728 2730 2731 2731 2733 2734 2735
2819 2816 2813 2810 2807 2803 2801 2799 2798 2795 2793 2790 2788 2785 2783 2781 2779 2777 2774 2772 2769 2767 2765 2763 2761 2758 2755 2752 2752 2753 2754 2752 2748 2746 2744 2742 2741 2742 2742 2740 2738 2736 2735 2734 2734 2733 2733 2732 2731 2730 2729 2729 2729 2728 2728 2728 2727 2726 2726 2725 2725 2724 2723 2723 2723 2722 2722 2722 2722 2722 2722 2722 2722 2722 2722 2723 2723 2723 2723 2724 2725 2726 2727 2728 2730 2732
2815 2813 2811 2808 2804 2801 2798 2797 2795 2793 2790 2788 2785 2782 2779 2778 2776 2774 2771 2769 2768 2766 2764 2762 2759 2757 2755 2752 2750 2750 2750 2748 2746 2743 2740 2738 2737 2737 2738 2737 2735 2733 2732 2731 2730 2730 2729 2728 2727 2727 2726 2726 2726 2725 2725 2724 2723 2722 2722 2721 2721 2720 2719 2719 2718 2718 2718 2717 2717 2718 2718 2718 2717 2717 2717 2718 2718 2718 2719 2720 2721 2722 2723 2725 2726 2728
2813 2811 2809 2806 2802 2798 2795 2793 2792 2790 2787 2785 2783 2780 2777 2774 2772 2770 2768 2767 2765 2764 2762 2759 2757 2754 2752 2750 2748 2747 2747 2746 2743 2740 2737 2735 2733 2733 2734 2733 2731 2729 2728 2727 2727 2726 2725 2724 2724 2723 2723 2723 2723 2722 2722 2721 2720 2719 2718 2717 2717 2716 2715 2714 2714 2713 2713 2713 2713 2714 2713 2713 2712 2712 2712 2713 2713 2713 2714 2716 2717 2718 2720 2721 2723 2724
2810 2807 2805 2803 2800 2796 2792 2790 2788 2787 2785 2783 2780 2777 2774 2772 2770 2768 2766 2765 2763 2761 2759 2756 2753 2751 2750 2747 2745 2744 2744 2743 2740 2737 2734 2732 2730 2729 2730 2729 2728 2726 2724 2723 2723 2722 2722 2721 2720 2720 2720 2720 2720 2719 2719 2718 2717 2715 2714 2713 2712 2711 2711 2710 2709 2708 2708 2708 2709 2709 2708 2707 2707 2707 2707 2708 2708 2709 2711 2712 2713 2714 2716 2717 2718 2720
2808 2804 2801 2800 2797 2794 2790 2787 2785 2784 2782 2781 2778 2776 2773 2771 2768 2766 2763 2762 2760 2757 2755 2753 2751 2748 2747 2744 2742 2741 2741 2740 2738 2735 2732 2728 2726 2725 2727 2726 2724 2722 2720 2719 2719 2719 2718 2718 2717 2717 2717 2717 2716 2716 2715 2714 2713 2712 2710 2709 2708 2707 2706 2705 2704 2704 2703 2703 2703 2703 2702 2701 2701 2702 2702 2703 2704 2705 2706 2708 2709 2710 2711 2712 2713 2715
2804 2801 2798 2796 2793 2791 2788 2785 2783 2781 2780 2779 2777 2774 2772 2769 2766 2763 2760 2758 2756 2754 2751 2749 2747 2745 2743 2742 2740 2739 2738 2738 2736 2733 2730 2726 2722 2722 2723 2722 2720 2718 2717 2716 2716 2715 2714 2714 2713 2713 2713 2713 2712 2712 2711 2710 2708 2708 2706 2705 2704 2703 2702 2701 2700 2700 2699 2698 2697 2697 2696 2696 2696 2696 2697 2698 2699 2701 2702 2703 2704 2705 2706 2707 2709 2710
2801 2798 2795 2793 2791 2788 2786 2784 2782 2779 2778 2775 2773 2770 2768 2766 2763 2761 2758 2756 2753 2751 2748 2746 2743 2741 2739 2739 2737 2736 2735 2735 2733 2731 2728 2724 2720 2719 2719 2718 2717 2715 2714 2713 2713 2712 2711 2710 2710 2709 2709 2709 2708 2708 2707 2706 2705 2704 2703 2702 2701 2699 2698 2698 2697 2696 2694 2693 2693 2692 2691 2691 2691 2691 2692 2693 2695 2696 2697 2698 2698 2699 2701 2702 2704 2706
2798 2795 2793 2790 2788 2787 2785 2782 2779 2777 2775 2773 2770 2768 2765 2763 2760 2758 2756 2753 2751 2748 2746 2743 2740 2738 2736 2736 2734 2733 2733 2732 2731 2728 2725 2721 2718 2716 2716 2716 2715 2713 2710 2709 2709 2708 2707 2706 2706 2706 2706 2705 2705 2705 2704 2703 2702 2701 2699 2698 2697 2696 2695 2693 2692 2691 2690 2689 2688 2687 2687 2687 2687 2687 2688 2688 2689 2690 2691 2692 2693 2695 2697 2698 2700 2703
2796 2793 2791 2788 2786 2784 2782 2780 2778 2776 2773 2771 2768 2765 2763 2760 2757 2755 2753 2751 2749 2747 2743 2740 2737 2735 2733 2732 2731 2730 2729 2728 2727 2725 2723 2719 2716 2713 2713 2713 2712 2709 2707 2706 2705 2705 2703 2702 2702 2702 2702 2702 2702 2702 2701 2700 2699 2698 2696 2695 2693 2692 2690 2689 2688 2687 2686 2685 2684 2683 2683 2683 2683 2683 2683 2684 2685 2686 2687 2688 2690 2692 2693 2695 2697 2699
2793 2790 2788 2786 2783 2781 2779 2777 2775 2773 2771 2769 2767 2764 2761 2758 2755 2753 2751 2749 2747 2745 2742 2738 2735 2732 2730 2729 2728 2727 2726 2725 2724 2722 2720 2718 2714 2711 2710 2710 2709 2706 2704 2702 2701 2701 2700 2699 2698 2698 2698 2698 2699 2698 2698 2697 2696 2694 2692 2691 2689 2688 2687 2685 2684 2683 2682 2681 2680 2680 2679 2679 2679 2679 2680 2680 2681 2682 2683 2685 2687 2688 2690 2692 2694 2696
2789 2787 2785 2783 2781 2779 2777 2775 2773 2771 2769 2767 2765 2763 2760 2758 2754 2751 2748 2747 2745 2743 2740 2736 2733 2730 2728 2726 2725 2724 2723 2722 2721 2719 2718 2715 2712 2709 2708 2707 2706 2704 2702 2699 2698 2698 2697 2696 2695 2694 2694 2695 2695 2695 2694 2693 2692 2690 2688 2687 2685 2684 2683 2682 2681 2680 2679 2678 2677 2676 2676 2676 2676 2676 2677 2678 2678 2679 2681 2682 2684 2685 2687 2689 2691 2693
2786 2784 2783 2781 2779 2777 2775 2773 2771 2769 2767 2765 2763 2761 2758 2756 2753 2750 2747 2745 2743 2740 2737 2734 2732 2729 2726 2723 2722 2721 2720 2720 2719 2718 2716 2713 2710 2707 2706 2705 2704 2702 2700 2697 2695 2694 2694 2693 2693 2692 2691 2692 2692 2692 2691 2689 2688 2686 2684 2683 2682 2681 2680 2679 2678 2676 2675 2674 2673 2673 2673 2673 2673 2674 2674 2675 2676 2677 2678 2680 2681 2683 2684 2686 2688 2690
2783 2782 2780 2778 2777 2775 2773 2770 2768 2767 2765 2763 2761 2759 2756 2754 2751 2748 2745 2743 2741 2738 2735 2732 2730 2728 2725 2722 2719 2718 2717 2718 2718 2717 2714 2712 2708 2705 2704 2703 2702 2701 2699 2697 2693 2690 2689 2690 2690 2690 2689 2689 2689 2689 2688 2686 2684 2683 2681 2680 2679 2678 2677 2676 2674 2673 2672 2672 2671 2671 2671 2671 2671 2672 2672 2673 2674 2675 2676 2678 2679 2681 2682 2683 2685 2687
2780 2778 2777 2776 2774 2772 2770 2768 2766 2764 2762 2760 2758 2756 2754 2751 2749 2746 2743 2741 2739 2736 2733 2731 2728 2726 2724 2722 2719 2716 2714 2716 2717 2716 2713 2710 2706 2704 2703 2702 2700 2699 2698 2697 2694 2689 2685 2685 2686 2688 2687 2687 2688 2687 2686 2683 2682 2680 2678 2677 2676 2675 2674 2673 2671 2670 2670 2669 2669 2669 2669 2669 2669 2670 2670 2671 2672 2673 2674 2676 2677 2678 2679 2681 2682 2684
2778 2776 2775 2773 2771 2769 2768 2765 2763 2761 2759 2757 2755 2753 2751 2749 2747 2744 2742 2740 2737 2735 2732 2729 2727 2725 2723 2721 2719 2716 2713 2714 2714 2714 2712 2709 2705 2702 2701 2700 2698 2697 2696 2696 2695 2692 2686 2682 2682 2683 2684 2685 2685 2684 2683 2681 2679 2677 2676 2674 2673 2673 2672 2671 2669 2668 2668 2668 2668 2667 2667 2668 2668 2668 2669 2669 2670 2671 2673 2674 2675 2676 2678 2678 2680 2682
2776 2775 2773 2771 2769 2767 2765 2763 2761 2758 2757 2754 2752 2750 2748 2747 2744 2743 2740 2738 2736 2733 2731 2728 2725 2723 2721 2719 2717 2715 2713 2713 2713 2712 2710 2708 2704 2701 2699 2698 2697 2695 2694 2693 2693 2691 2688 2683 2680 2680 2681 2682 2683 2682 2680 2678 2677 2675 2674 2673 2671 2670 2670 2669 2668 2667 2666 2666 2666 2666 2666 2666 2666 2667 2667 2668 2668 2670 2671 2672 2673 2675 2676 2677 2678 2680
2774 2773 2771 2769 2767 2764 2763 2761 2758 2757 2754 2752 2750 2748 2746 2744 2743 2740 2738 2736 2734 2732 2730 2728 2725 2722 2719 2717 2714 2713 2712 2712 2711 2710 2709 2707 2703 2700 2698 2697 2696 2694 2692 2691 2689 2688 2686 2683 2681 2679 2678 2679 2680 2680 2678 2676 2675 2674 2673 2671 2670 2669 2668 2667 2666 2666 2666 2666 2665 2665 2665 2665 2665 2665 2666 2667 2668 2668 2670 2671 2672 2673 2674 2676 2677 2679
2772 2771 2768 2766 2764 2762 2760 2758 2756 2754 2753 2750 2748 2747 2744 2743 2740 2738 2737 2735 2733 2731 2728 2726 2724 2722 2719 2716 2713 2711 2710 2710 2709 2709 2708 2706 2703 2700 2697 2696 2694 2693 2691 2689 2688 2686 2684 2682 2680 2679 2678 2678 2678 2678 2677 2675 2674 2672 2671 2670 2669 2668 2667 2666 2666 2665 2665 2665 2665 2665 2664 2664 2665 2665 2666 2666 2667 2668 2669 2670 2671 2672 2673 2675 2676 2677
2770 2768 2766 2764 2762 2760 2758 2756 2754 2752 2750 2748 2747 2745 2743 2741 2739 2737 2735 2733 2731 2729 2727 2725 2723 2721 2719 2717 2713 2711 2708 2708 2707 2707 2706 2704 2702 2699 2697 2694 2693 2692 2690 2688 2686 2685 2683 2680 2679 2678 2678 2677 2676 2675 2675 2674 2673 2672 2670 2669 2668 2667 2666 2666 2666 2666 2665 2665 2665 2665 2665 2665 2665 2665 2666 2666 2667 2668 2668 2669 2670 2672 2673 2674 2675 2676
2768 2766 2764 2762 2760 2758 2756 2754 2753 2751 2748 2747 2745 2743 2741 2739 2737 2735 2733 2731 2729 2727 2725 2723 2722 2720 2718 2716 2713 2711 2708 2706 2705 2704 2703 2702 2701 2698 2696 2693 2692 2691 2690 2688 2685 2683 2682 2679 2677 2677 2677 2677 2675 2674 2673 2673 2672 2671 2670 2668 2667 2666 2666 2667 2667 2666 2666 2665 2665 2665 2665 2666 2666 2666 2666 2667 2667 2668 2668 2669 2670 2671 2672 2673 2674 2675
2766 2764 2763 2761 2759 2757 2755 2753 2751 2749 2747 2745 2743 2741 2739 2737 2735 2733 2731 2729 2727 2725 2723 2721 2719 2718 2716 2714 2712 2710 2708 2706 2704 2703 2702 2700 2699 2697 2694 2692 2690 2690 2689 2687 2685 2683 2681 2679 2677 2675 2675 2675 2674 2673 2673 2671 2670 2670 2669 2668 2667 2667 2667 2668 2667 2667 2666 2666 2666 2666 2666 2666 2667 2667 2667 2667 2668 2668 2668 2668 2669 2670 2671 2672 2673 2674
2764 2763 2761 2759 2758 2755 2753 2751 2749 2747 2745 2743 2742 2740 2738 2736 2733 2732 2730 2728 2726 2724 2722 2720 2718 2716 2714 2713 2711 2709 2707 2705 2703 2702 2700 2698 2697 2695 2693 2691 2689 2688 2687 2686 2684 2683 2681 2679 2677 2675 2674 2673 2673 2673 2672 2671 2670 2669 2668 2668 2668 2668 2668 2668 2668 2668 2667 2667 2667 2667 2667 2667 2667 2667 2667 2667 2667 2667 2667 2667 2668 2669 2670 2671 2672 2673
2763 2762 2760 2758 2756 2754 2753 2750 2748 2746 2744 2742 2740 2738 2736 2734 2732 2730 2728 2726 2724 2722 2720 2718 2716 2714 2713 2711 2710 2708 2706 2704 2703 2701 2699 2697 2695 2694 2692 2690 2688 2686 2685 2684 2683 2682 2680 2678 2677 2675 2674 2673 2672 2672 2672 2671 2670 2669 2668 2668 2668 2669 2669 2669 2668 2668 2668 2668 2668 2668 2668 2668 2667 2667 2666 2666 2665 2665 2666 2666 2667 2669 2670 2672 2672 2673
2762 2760 2759 2757 2755 2753 2751 2749 2747 2745 2743 2741 2739 2737 2735 2732 2730 2728 2726 2725 2723 2721 2719 2717 2715 2713 2712 2710 2709 2707 2705 2703 2701 2699 2698 2696 2694 2692 2690 2689 2687 2685 2684 2683 2682 2681 2679 2678 2676 2675 2674 2673 2673 2672 2672 2671 2670 2669 2669 2669 2670 2670 2670 2670 2670 2669 2670 2669 2669 2668 2668 2667 2666 2666 2666 2666 2666 2666 2667 2667 2667 2668 2670 2672 2673 2673
2762 2759 2758 2756 2754 2752 2750 2748 2746 2744 2743 2740 2738 2736 2733 2731 2729 2727 2724 2723 2721 2719 2718 2716 2714 2712 2710 2709 2708 2706 2704 2703 2700 2698 2697 2694 2693 2691 2689 2688 2686 2685 2683 2681 2680 2679 2679 2677 2676 2675 2674 2673 2673 2672 2672 2671 2670 2670 2670 2671 2671 2672 2672 2671 2671 2671 2670 2669 2668 2668 2668 2667 2667 2667 2667 2667 2667 2667 2668 2668 2668 2668 2669 2671 2672 2673
2760 2758 2757 2755 2753 2751 2749 2747 2745 2743 2742 2739 2737 2735 2733 2730 2728 2726 2723 2722 2720 2718 2716 2715 2713 2711 2709 2708 2707 2705 2704 2702 2700 2698 2695 2693 2692 2690 2688 2687 2685 2683 2682 2680 2679 2678 2678 2677 2676 2675 2674 2673 2673 2672 2672 2671 2671 2671 2672 2672 2673 2673 2673 2673 2672 2671 2670 2669 2669 2669 2669 2668 2668 2668 2668 2668 2668 2668 2668 2668 2668 2668 2668 2669 2671 2673
2759 2757 2755 2753 2752 2750 2748 2747 2745 2743 2741 2738 2737 2734 2732 2730 2728 2725 2723 2721 2719 2717 2715 2713 2712 2710 2708 2707 2705 2704 2703 2701 2699 2697 2695 2693 2691 2689 2688 2686 2684 2682 2681 2679 2678 2677 2677 2676 2675 2674 2674 2673 2673 2673 2672 2672 2672 2672 2673 2674 2674 2674 2674 2673 2673 2671 2670 2670 2670 2670 2670 2669 2669 2669 2668 2668 2668 2668 2668 2668 2668 2668 2668 2668 2669 2671
2758 2756 2754 2753 2751 2749 2748 2746 2744 2742 2740 2738 2736 2734 2732 2729 2727 2725 2723 2720 2718 2717 2715 2713 2711 2709 2707 2706 2705 2703 2702 2700 2698 2696 2694 2693 2691 2689 2687 2684 2683 2681 2680 2679 2678 2677 2676 2675 2675 2674 2674 2673 2673 2673 2673 2673 2673 2674 2674 2675 2675 2675 2675 2674 2673 2672 2671 2671 2671 2670 2670 2670 2670 2669 2669 2669 2669 2669 2669 2669 2668 2668 2668 2668 2668 2670
2758 2755 2753 2752 2750 2749 2747 2745 2743 2741 2739 2738 2735 2733 2731 2729 2727 2725 2723 2720 2718 2716 2714 2712 2711 2708 2707 2705 2704 2702 2701 2699 2697 2695 2693 2692 2690 2688 2686 2684 2682 2680 2678 2678 2677 2676 2675 2675 2674 2674 2674 2673 2673 2673 2674 2674 2675 2675 2676 2676 2676 2676 2676 2675 2674 2673 2672 2672 2671 2671 2671 2671 2670 2669 2669 2669 2669 2669 2669 2669 2669 2669 2668 2668 2668 2669
2757 2755 2753 2751 2750 2748 2747 2745 2743 2741 2739 2737 2735 2733 2731 2729 2727 2724 2723 2720 2718 2716 2714 2712 2710 2709 2707 2705 2703 2701 2699 2698 2696 2694 2693 2691 2689 2687 2685 2683 2681 2679 2678 2677 2676 2675 2675 2674 2674 2674 2674 2674 2674 2675 2675 2676 2676 2677 2677 2678 2678 2677 2676 2675 2675 2674 2673 2673 2673 2672 2672 2671 2670 2670 2669 2669 2669 2669 2669 2669 2669 2669 2669 2669 2669 2670
2756 2754 2753 2751 2749 2748 2746 2744 2742 2740 2738 2737 2735 2733 2731 2729 2727 2724 2722 2720 2718 2716 2714 2712 2710 2708 2707 2705 2703 2701 2699 2697 2695 2693 2692 2690 2688 2686 2684 2682 2680 2678 2677 2676 2675 2675 2675 2674 2674 2674 2675 2675 2676 2676 2677 2678 2678 2678 2679 2679 2678 2678 2677 2677 2676 2675 2675 2674 2674 2674 2673 2672 2671 2671 2670 2670 2670 2670 2670 2670 2670 2670 2670 2670 2670 2671
2756 2754 2752 2750 2749 2747 2745 2743 2742 2740 2738 2736 2734 2733 2731 2729 2727 2725 2723 2720 2718 2716 2714 2712 2710 2708 2707 2705 2703 2701 2699 2698 2695 2693 2692 2690 2688 2686 2684 2682 2680 2678 2677 2676 2675 2675 2675 2675 2675 2675 2676 2677 2677 2678 2678 2679 2680 2680 2680 2680 2679 2679 2678 2678 2678 2677 2677 2676 2676 2675 2674 2674 2673 2672 2672 2671 2671 2671 2671 2671 2672 2672 2672 2671 2671 2672
2756 2754 2752 2750 2748 2747 2745 2743 2741 2739 2737 2735 2733 2732 2730 2728 2727 2725 2723 2721 2719 2717 2714 2712 2710 2708 2707 2705 2703 2701 2699 2698 2696 2694 2692 2690 2688 2686 2684 2682 2680 2678 2677 2677 2676 2676 2676 2676 2676 2677 2678 2678 2679 2680 2680 2681 2681 2682 2681 2681 2680 2680 2680 2680 2679 2679 2679 2678 2678 2677 2676 2675 2674 2674 2673 2673 2672 2672 2672 2672 2672 2673 2673 2673 2673 2673
2755 2753 2752 2750 2748 2746 2744 2743 2740 2738 2736 2734 2733 2731 2729 2728 2726 2725 2723 2721 2719 2717 2715 2713 2711 2708 2707 2705 2703 2702 2700 2698 2696 2694 2692 2690 2688 2686 2684 2682 2681 2679 2678 2678 2677 2677 2677 2677 2678 2678 2679 2680 2681 2681 2682 2683 2683 2682 2682 2682 2682 2682 2682 2682 2682 2681 2681 2680 2679 2679 2678 2677 2676 2675 2674 2674 2673 2673 2673 2673 2673 2673 2674 2674 2674 2675